Time,TemperatureF,DewpointF,PressureIn,WindDirection,WindDirectionDegrees,WindSpeedMPH,WindSpeedGustMPH,Humidity,HourlyPrecipIn,Conditions,Clouds,dailyrainin,SoftwareType,DateUTC
2013-03-28 00:00:00,30.4,28.6,30.09,WNW,290,4.0,7.0,93,0.00,,---,0.00,VWS V14.01,2013-03-28 04:00:00,
2013-03-28 00:02:00,30.4,28.6,30.09,West,279,1.0,7.0,93,0.00,,---,0.00,VWS V14.01,2013-03-28 04:02:00,
2013-03-28 00:08:00,30.4,28.6,30.09,West,276,3.0,6.0,93,0.00,,---,0.00,VWS V14.01,2013-03-28 04:08:00,
2013-03-28 00:14:00,30.4,28.6,30.09,West,280,4.0,6.0,93,0.00,,---,0.00,VWS V14.01,2013-03-28 04:14:00,
2013-03-28 00:18:00,30.4,28.6,30.08,West,273,3.0,6.0,93,0.00,,---,0.00,VWS V14.01,2013-03-28 04:18:00,
2013-03-28 00:24:00,30.4,28.6,30.08,West,279,2.0,6.0,93,0.00,,---,0.00,VWS V14.01,2013-03-28 04:24:00,
2013-03-28 00:30:00,30.4,28.6,30.08,West,277,0.0,6.0,93,0.00,,---,0.00,VWS V14.01,2013-03-28 04:30:00,
2013-03-28 00:39:00,30.5,28.7,30.08,WNW,288,4.0,7.0,93,0.00,,---,0.00,VWS V14.01,2013-03-28 04:39:00,
2013-03-28 00:45:00,30.5,28.7,30.08,West,279,5.0,7.0,93,0.00,,---,0.00,VWS V14.01,2013-03-28 04:45:00,
2013-03-28 00:53:00,30.5,28.7,30.08,West,259,4.0,11.0,93,0.00,,---,0.00,VWS V14.01,2013-03-28 04:53:00,
2013-03-28 00:59:00,30.6,28.8,30.08,WNW,284,2.0,11.0,93,0.00,,---,0.00,VWS V14.01,2013-03-28 04:59:00,
2013-03-28 01:05:00,30.6,28.8,30.08,West,267,5.0,9.0,93,0.00,,---,0.00,VWS V14.01,2013-03-28 05:05:00,
2013-03-28 01:11:00,30.6,28.8,30.08,WSW,249,5.0,9.0,93,0.00,,---,0.00,VWS V14.01,2013-03-28 05:11:00,
2013-03-28 01:17:00,30.6,28.8,30.07,West,276,3.0,9.0,93,0.00,,---,0.00,VWS V14.01,2013-03-28 05:17:00,
2013-03-28 01:23:00,30.6,28.8,30.07,WNW,282,6.0,10.0,93,0.00,,---,0.00,VWS V14.01,2013-03-28 05:23:00,
2013-03-28 01:29:00,30.7,28.9,30.08,WNW,288,3.0,10.0,93,0.00,,---,0.00,VWS V14.01,2013-03-28 05:29:00,
2013-03-28 01:35:00,30.6,28.8,30.07,WSW,253,4.0,9.0,93,0.00,,---,0.00,VWS V14.01,2013-03-28 05:35:00,
2013-03-28 01:41:00,30.6,28.8,30.07,West,271,4.0,9.0,93,0.00,,---,0.00,VWS V14.01,2013-03-28 05:41:00,
2013-03-28 01:47:00,30.6,28.8,30.07,West,275,1.0,9.0,93,0.00,,---,0.00,VWS V14.01,2013-03-28 05:47:00,
2013-03-28 01:54:00,30.6,28.8,30.07,West,281,3.0,9.0,93,0.00,,---,0.00,VWS V14.01,2013-03-28 05:54:00,
2013-03-28 02:00:00,30.6,28.8,30.07,West,279,1.0,9.0,93,0.00,,---,0.00,VWS V14.01,2013-03-28 06:00:00,
2013-03-28 02:06:00,30.6,28.8,30.07,West,264,3.0,6.0,93,0.00,,---,0.00,VWS V14.01,2013-03-28 06:06:00,
2013-03-28 02:12:00,30.6,28.8,30.07,West,279,5.0,6.0,93,0.00,,---,0.00,VWS V14.01,2013-03-28 06:12:00,
2013-03-28 02:18:00,30.6,28.8,30.07,West,272,0.0,6.0,93,0.00,,---,0.00,VWS V14.01,2013-03-28 06:18:00,
2013-03-28 02:24:00,30.5,28.7,30.07,WNW,288,3.0,9.0,93,0.00,,---,0.00,VWS V14.01,2013-03-28 06:24:00,
2013-03-28 02:30:00,30.5,28.7,30.07,WNW,286,1.0,9.0,93,0.00,,---,0.00,VWS V14.01,2013-03-28 06:30:00,
2013-03-28 02:38:00,30.3,28.5,30.08,West,271,1.0,6.0,93,0.00,,---,0.00,VWS V14.01,2013-03-28 06:38:00,
2013-03-28 02:44:00,30.1,28.3,30.08,WNW,290,2.0,6.0,93,0.00,,---,0.00,VWS V14.01,2013-03-28 06:44:00,
2013-03-28 02:51:00,30.0,28.2,30.08,WNW,295,2.0,6.0,93,0.00,,---,0.00,VWS V14.01,2013-03-28 06:51:00,
2013-03-28 02:57:00,29.7,27.9,30.08,West,268,3.0,8.0,93,0.00,,---,0.00,VWS V14.01,2013-03-28 06:57:00,
2013-03-28 03:02:00,29.6,27.8,30.08,WNW,290,2.0,8.0,93,0.00,,---,0.00,VWS V14.01,2013-03-28 07:02:00,
2013-03-28 03:07:00,29.4,27.4,30.08,WNW,283,1.0,8.0,92,0.00,,---,0.00,VWS V14.01,2013-03-28 07:07:00,
2013-03-28 03:13:00,29.3,27.3,30.08,West,265,0.0,8.0,92,0.00,,---,0.00,VWS V14.01,2013-03-28 07:13:00,
2013-03-28 03:19:00,29.3,27.3,30.08,WNW,293,2.0,8.0,92,0.00,,---,0.00,VWS V14.01,2013-03-28 07:19:00,
2013-03-28 03:25:00,29.3,27.3,30.08,WNW,284,5.0,8.0,92,0.00,,---,0.00,VWS V14.01,2013-03-28 07:25:00,
2013-03-28 03:31:00,29.2,27.2,30.08,West,260,3.0,11.0,92,0.00,,---,0.00,VWS V14.01,2013-03-28 07:31:00,
2013-03-28 03:37:00,29.2,27.2,30.08,WNW,282,4.0,10.0,92,0.00,,---,0.00,VWS V14.01,2013-03-28 07:37:00,
2013-03-28 03:43:00,29.2,26.9,30.09,West,275,2.0,10.0,91,0.00,,---,0.00,VWS V14.01,2013-03-28 07:43:00,
2013-03-28 03:49:00,29.2,26.9,30.08,NNW,336,2.0,10.0,91,0.00,,---,0.00,VWS V14.01,2013-03-28 07:49:00,
2013-03-28 03:55:00,29.1,26.8,30.09,NW,319,4.0,10.0,91,0.00,,---,0.00,VWS V14.01,2013-03-28 07:55:00,
2013-03-28 04:01:00,29.1,27.1,30.09,WNW,288,2.0,10.0,92,0.00,,---,0.00,VWS V14.01,2013-03-28 08:01:00,
2013-03-28 04:07:00,29.0,27.0,30.09,WNW,302,2.0,4.0,92,0.00,,---,0.00,VWS V14.01,2013-03-28 08:07:00,
2013-03-28 04:13:00,29.1,27.1,30.09,North,360,6.0,6.0,92,0.00,,---,0.00,VWS V14.01,2013-03-28 08:13:00,
2013-03-28 04:19:00,29.0,27.0,30.09,WNW,282,5.0,6.0,92,0.00,,---,0.00,VWS V14.01,2013-03-28 08:19:00,
2013-03-28 04:26:00,29.0,27.0,30.09,West,275,3.0,9.0,92,0.00,,---,0.00,VWS V14.01,2013-03-28 08:26:00,
2013-03-28 04:32:00,29.0,26.7,30.09,West,276,2.0,9.0,91,0.00,,---,0.00,VWS V14.01,2013-03-28 08:32:00,
2013-03-28 04:38:00,28.9,26.6,30.09,West,263,1.0,6.0,91,0.00,,---,0.00,VWS V14.01,2013-03-28 08:38:00,
2013-03-28 04:44:00,28.9,26.6,30.09,West,267,3.0,6.0,91,0.00,,---,0.00,VWS V14.01,2013-03-28 08:44:00,
2013-03-28 04:50:00,28.9,26.6,30.09,WNW,284,2.0,6.0,91,0.00,,---,0.00,VWS V14.01,2013-03-28 08:50:00,
2013-03-28 04:56:00,28.9,26.6,30.10,West,272,1.0,6.0,91,0.00,,---,0.00,VWS V14.01,2013-03-28 08:56:00,
2013-03-28 05:02:00,28.9,26.6,30.09,West,272,0.0,6.0,91,0.00,,---,0.00,VWS V14.01,2013-03-28 09:02:00,
2013-03-28 05:08:00,28.9,26.9,30.10,West,272,2.0,3.0,92,0.00,,---,0.00,VWS V14.01,2013-03-28 09:08:00,
2013-03-28 05:14:00,28.9,26.9,30.09,West,275,1.0,4.0,92,0.00,,---,0.00,VWS V14.01,2013-03-28 09:14:00,
2013-03-28 05:20:00,28.9,26.9,30.10,West,269,0.0,6.0,92,0.00,,---,0.00,VWS V14.01,2013-03-28 09:20:00,
2013-03-28 05:26:00,28.9,26.9,30.10,NW,304,3.0,6.0,92,0.00,,---,0.00,VWS V14.01,2013-03-28 09:26:00,
2013-03-28 05:32:00,28.9,26.9,30.09,West,277,1.0,6.0,92,0.00,,---,0.00,VWS V14.01,2013-03-28 09:32:00,
2013-03-28 05:38:00,29.0,27.0,30.09,West,278,3.0,4.0,92,0.00,,---,0.00,VWS V14.01,2013-03-28 09:38:00,
2013-03-28 05:44:00,28.9,26.9,30.10,WNW,292,3.0,4.0,92,0.00,,---,0.00,VWS V14.01,2013-03-28 09:44:00,
2013-03-28 05:50:00,28.9,26.9,30.10,WNW,283,3.0,5.0,92,0.00,,---,0.00,VWS V14.01,2013-03-28 09:50:00,
2013-03-28 05:56:00,28.9,26.9,30.09,West,281,1.0,5.0,92,0.00,,---,0.00,VWS V14.01,2013-03-28 09:56:00,
2013-03-28 06:02:00,28.8,26.8,30.10,West,276,1.0,5.0,92,0.00,,---,0.00,VWS V14.01,2013-03-28 10:02:00,
2013-03-28 06:09:00,28.9,26.9,30.10,WNW,294,3.0,6.0,92,0.00,,---,0.00,VWS V14.01,2013-03-28 10:09:00,
2013-03-28 06:15:00,28.8,26.8,30.10,NW,314,3.0,7.0,92,0.00,,---,0.00,VWS V14.01,2013-03-28 10:15:00,
2013-03-28 06:21:00,28.8,26.8,30.10,WNW,287,1.0,7.0,92,0.00,,---,0.00,VWS V14.01,2013-03-28 10:21:00,
2013-03-28 06:27:00,28.8,26.8,30.10,West,273,0.0,7.0,92,0.00,,---,0.00,VWS V14.01,2013-03-28 10:27:00,
2013-03-28 06:32:00,28.8,26.8,30.10,WSW,257,4.0,7.0,92,0.00,,---,0.00,VWS V14.01,2013-03-28 10:32:00,
2013-03-28 06:37:00,28.8,26.8,30.11,WNW,286,2.0,4.0,92,0.00,,---,0.00,VWS V14.01,2013-03-28 10:37:00,
2013-03-28 06:43:00,28.8,26.8,30.11,WNW,298,3.0,4.0,92,0.00,,---,0.00,VWS V14.01,2013-03-28 10:43:00,
2013-03-28 06:49:00,28.8,26.8,30.10,West,274,0.0,4.0,92,0.00,,---,0.00,VWS V14.01,2013-03-28 10:49:00,
2013-03-28 06:55:00,28.9,26.9,30.10,West,271,2.0,5.0,92,0.00,,---,0.00,VWS V14.01,2013-03-28 10:55:00,
2013-03-28 07:01:00,28.9,26.9,30.11,West,269,3.0,7.0,92,0.00,,---,0.00,VWS V14.01,2013-03-28 11:01:00,
2013-03-28 07:07:00,28.9,26.9,30.11,West,270,2.0,5.0,92,0.00,,---,0.00,VWS V14.01,2013-03-28 11:07:00,
2013-03-28 07:13:00,28.9,26.9,30.11,West,265,4.0,5.0,92,0.00,,---,0.00,VWS V14.01,2013-03-28 11:13:00,
2013-03-28 07:19:00,28.9,26.9,30.11,West,263,2.0,5.0,92,0.00,,---,0.00,VWS V14.01,2013-03-28 11:19:00,
2013-03-28 07:25:00,29.0,27.0,30.12,West,268,2.0,6.0,92,0.00,,---,0.00,VWS V14.01,2013-03-28 11:25:00,
2013-03-28 07:32:00,29.1,27.1,30.13,WNW,286,2.0,6.0,92,0.00,,---,0.00,VWS V14.01,2013-03-28 11:32:00,
2013-03-28 07:38:00,29.2,27.2,30.13,West,277,4.0,5.0,92,0.00,,---,0.00,VWS V14.01,2013-03-28 11:38:00,
2013-03-28 07:44:00,29.2,27.2,30.12,WNW,288,1.0,5.0,92,0.00,,---,0.00,VWS V14.01,2013-03-28 11:44:00,
2013-03-28 07:50:00,29.3,27.3,30.13,West,265,2.0,5.0,92,0.00,,---,0.00,VWS V14.01,2013-03-28 11:50:00,
2013-03-28 07:56:00,29.3,27.3,30.13,West,269,2.0,5.0,92,0.00,,---,0.00,VWS V14.01,2013-03-28 11:56:00,
2013-03-28 08:02:00,29.3,27.3,30.13,West,269,2.0,5.0,92,0.00,,---,0.00,VWS V14.01,2013-03-28 12:02:00,
2013-03-28 08:08:00,29.4,27.4,30.14,West,270,4.0,5.0,92,0.00,,---,0.00,VWS V14.01,2013-03-28 12:08:00,
2013-03-28 08:14:00,29.4,27.4,30.14,West,267,2.0,5.0,92,0.00,,---,0.00,VWS V14.01,2013-03-28 12:14:00,
2013-03-28 08:20:00,29.5,27.5,30.14,WSW,257,0.0,5.0,92,0.00,,---,0.00,VWS V14.01,2013-03-28 12:20:00,
2013-03-28 08:27:00,29.6,27.6,30.14,WSW,257,0.0,5.0,92,0.00,,---,0.00,VWS V14.01,2013-03-28 12:27:00,
2013-03-28 08:32:00,29.6,27.6,30.14,West,259,2.0,5.0,92,0.00,,---,0.00,VWS V14.01,2013-03-28 12:32:00,
2013-03-28 08:37:00,29.7,27.7,30.14,West,267,2.0,3.0,92,0.00,,---,0.00,VWS V14.01,2013-03-28 12:37:00,
2013-03-28 08:43:00,29.8,27.8,30.14,West,259,3.0,6.0,92,0.00,,---,0.00,VWS V14.01,2013-03-28 12:43:00,
2013-03-28 08:49:00,29.9,27.9,30.14,WNW,292,4.0,6.0,92,0.00,,---,0.00,VWS V14.01,2013-03-28 12:49:00,
2013-03-28 08:55:00,29.9,27.9,30.14,WNW,284,2.0,6.0,92,0.00,,---,0.00,VWS V14.01,2013-03-28 12:55:00,
2013-03-28 09:01:00,30.1,28.1,30.14,West,276,1.0,6.0,92,0.00,,---,0.00,VWS V14.01,2013-03-28 13:01:00,
2013-03-28 09:07:00,30.1,28.1,30.14,WNW,294,1.0,4.0,92,0.00,,---,0.00,VWS V14.01,2013-03-28 13:07:00,
2013-03-28 09:13:00,30.2,28.2,30.14,West,265,2.0,4.0,92,0.00,,---,0.00,VWS V14.01,2013-03-28 13:13:00,
2013-03-28 09:19:00,30.4,28.4,30.15,WNW,282,2.0,4.0,92,0.00,,---,0.00,VWS V14.01,2013-03-28 13:19:00,
2013-03-28 09:55:00,31.0,28.7,30.16,West,271,4.0,6.0,91,0.00,,---,0.00,VWS V14.01,2013-03-28 13:55:00,
2013-03-28 10:02:00,31.2,28.9,30.15,West,269,1.0,6.0,91,0.00,,---,0.00,VWS V14.01,2013-03-28 14:02:00,
2013-03-28 10:08:00,31.4,29.1,30.16,West,269,3.0,5.0,91,0.00,,---,0.00,VWS V14.01,2013-03-28 14:08:00,
2013-03-28 10:14:00,31.4,29.1,30.16,West,275,1.0,5.0,91,0.00,,---,0.00,VWS V14.01,2013-03-28 14:14:00,
2013-03-28 10:20:00,31.5,28.9,30.16,ESE,119,0.0,7.0,90,0.00,,---,0.00,VWS V14.01,2013-03-28 14:20:00,
2013-03-28 10:28:00,31.7,29.1,30.16,West,267,2.0,7.0,90,0.00,,---,0.00,VWS V14.01,2013-03-28 14:28:00,
2013-03-28 10:34:00,31.7,29.1,30.16,WNW,286,2.0,4.0,90,0.00,,---,0.00,VWS V14.01,2013-03-28 14:34:00,
2013-03-28 10:40:00,31.6,29.0,30.16,SW,236,5.0,6.0,90,0.00,,---,0.00,VWS V14.01,2013-03-28 14:40:00,
2013-03-28 10:46:00,31.6,29.0,30.17,WNW,289,3.0,6.0,90,0.00,,---,0.00,VWS V14.01,2013-03-28 14:46:00,
2013-03-28 10:52:00,31.6,28.7,30.17,NW,322,0.0,8.0,89,0.00,,---,0.00,VWS V14.01,2013-03-28 14:52:00,
2013-03-28 10:58:00,31.9,28.8,30.17,West,267,2.0,8.0,88,0.00,,---,0.00,VWS V14.01,2013-03-28 14:58:00,
2013-03-28 11:04:00,32.1,29.0,30.17,West,272,2.0,5.0,88,0.00,,---,0.00,VWS V14.01,2013-03-28 15:04:00,
2013-03-28 11:10:00,32.2,28.8,30.17,WNW,295,0.0,9.0,87,0.01,,---,0.01,VWS V14.01,2013-03-28 15:10:00,
2013-03-28 11:16:00,32.1,28.7,30.18,WNW,290,2.0,9.0,87,0.01,,---,0.01,VWS V14.01,2013-03-28 15:16:00,
2013-03-28 11:22:00,32.1,28.7,30.18,NW,304,2.0,9.0,87,0.01,,---,0.01,VWS V14.01,2013-03-28 15:22:00,
2013-03-28 11:29:00,32.1,28.7,30.18,West,272,3.0,9.0,87,0.01,,---,0.01,VWS V14.01,2013-03-28 15:29:00,
2013-03-28 11:35:00,32.2,28.8,30.18,NNE,14,0.0,6.0,87,0.01,,---,0.01,VWS V14.01,2013-03-28 15:35:00,
2013-03-28 11:41:00,32.3,28.9,30.18,WSW,244,2.0,6.0,87,0.02,,---,0.02,VWS V14.01,2013-03-28 15:41:00,
2013-03-28 11:47:00,32.7,29.0,30.18,WNW,284,2.0,7.0,86,0.02,,---,0.02,VWS V14.01,2013-03-28 15:47:00,
2013-03-28 11:53:00,32.8,29.1,30.18,West,275,2.0,7.0,86,0.02,,---,0.02,VWS V14.01,2013-03-28 15:53:00,
2013-03-28 11:59:00,32.7,29.0,30.18,West,277,4.0,7.0,86,0.03,,---,0.03,VWS V14.01,2013-03-28 15:59:00,
2013-03-28 12:05:00,32.8,28.8,30.19,WNW,283,3.0,5.0,85,0.03,,---,0.03,VWS V14.01,2013-03-28 16:05:00,
2013-03-28 12:11:00,33.2,29.5,30.19,West,261,0.0,5.0,86,0.03,,---,0.03,VWS V14.01,2013-03-28 16:11:00,
2013-03-28 12:17:00,33.2,29.5,30.18,WSW,245,4.0,7.0,86,0.03,,---,0.03,VWS V14.01,2013-03-28 16:17:00,
2013-03-28 12:23:00,33.2,29.5,30.18,NW,308,1.0,7.0,86,0.03,,---,0.03,VWS V14.01,2013-03-28 16:23:00,
2013-03-28 12:29:00,33.2,29.5,30.18,West,276,1.0,7.0,86,0.04,,---,0.04,VWS V14.01,2013-03-28 16:29:00,
2013-03-28 12:35:00,33.1,29.1,30.19,WNW,283,5.0,8.0,85,0.03,,---,0.04,VWS V14.01,2013-03-28 16:35:00,
2013-03-28 12:41:00,32.8,28.8,30.19,WSW,246,3.0,10.0,85,0.03,,---,0.04,VWS V14.01,2013-03-28 16:41:00,
2013-03-28 12:47:00,32.7,28.7,30.18,WNW,283,3.0,11.0,85,0.04,,---,0.05,VWS V14.01,2013-03-28 16:47:00,
2013-03-28 12:53:00,32.9,28.9,30.19,West,266,3.0,11.0,85,0.04,,---,0.05,VWS V14.01,2013-03-28 16:53:00,
2013-03-28 12:59:00,32.9,29.2,30.19,WSW,240,1.0,11.0,86,0.04,,---,0.05,VWS V14.01,2013-03-28 16:59:00,
2013-03-28 13:05:00,33.0,29.3,30.18,West,259,6.0,7.0,86,0.02,,---,0.05,VWS V14.01,2013-03-28 17:05:00,
2013-03-28 13:11:00,33.2,29.5,30.18,WNW,289,5.0,9.0,86,0.02,,---,0.05,VWS V14.01,2013-03-28 17:11:00,
2013-03-28 13:17:00,33.5,29.8,30.18,NW,317,1.0,10.0,86,0.02,,---,0.05,VWS V14.01,2013-03-28 17:17:00,
2013-03-28 13:23:00,33.4,29.4,30.18,WSW,252,6.0,10.0,85,0.03,,---,0.06,VWS V14.01,2013-03-28 17:23:00,
2013-03-28 13:29:00,33.4,29.4,30.18,West,267,5.0,11.0,85,0.03,,---,0.06,VWS V14.01,2013-03-28 17:29:00,
2013-03-28 13:35:00,33.3,29.6,30.19,West,270,1.0,7.0,86,0.02,,---,0.06,VWS V14.01,2013-03-28 17:35:00,
2013-03-28 13:41:00,33.4,29.7,30.19,WNW,283,4.0,7.0,86,0.03,,---,0.07,VWS V14.01,2013-03-28 17:41:00,
2013-03-28 13:48:00,33.3,29.6,30.19,WSW,252,3.0,10.0,86,0.03,,---,0.07,VWS V14.01,2013-03-28 17:48:00,
2013-03-28 13:54:00,33.4,29.4,30.19,West,272,4.0,12.0,85,0.03,,---,0.07,VWS V14.01,2013-03-28 17:54:00,
2013-03-28 14:00:00,33.5,29.5,30.19,NW,306,3.0,12.0,85,0.03,,---,0.07,VWS V14.01,2013-03-28 18:00:00,
2013-03-28 14:08:00,33.6,29.6,30.19,West,266,4.0,10.0,85,0.02,,---,0.07,VWS V14.01,2013-03-28 18:08:00,
2013-03-28 14:14:00,33.6,29.6,30.19,West,275,2.0,10.0,85,0.02,,---,0.07,VWS V14.01,2013-03-28 18:14:00,
2013-03-28 14:20:00,33.5,30.0,30.19,West,264,5.0,10.0,87,0.02,,---,0.07,VWS V14.01,2013-03-28 18:20:00,
2013-03-28 14:26:00,33.6,30.1,30.19,WNW,292,1.0,10.0,87,0.02,,---,0.07,VWS V14.01,2013-03-28 18:26:00,
2013-03-28 14:32:00,33.5,29.8,30.19,West,269,4.0,12.0,86,0.02,,---,0.07,VWS V14.01,2013-03-28 18:32:00,
2013-03-28 14:38:00,32.8,29.6,30.19,WSW,257,4.0,15.0,88,0.01,,---,0.07,VWS V14.01,2013-03-28 18:38:00,
2013-03-28 14:44:00,32.3,29.4,30.19,WNW,296,6.0,15.0,89,0.01,,---,0.07,VWS V14.01,2013-03-28 18:44:00,
2013-03-28 14:51:00,32.3,29.7,30.19,WSW,256,3.0,15.0,90,0.01,,---,0.07,VWS V14.01,2013-03-28 18:51:00,
2013-03-28 14:57:00,32.3,29.7,30.19,WNW,296,5.0,15.0,90,0.01,,---,0.07,VWS V14.01,2013-03-28 18:57:00,
2013-03-28 15:03:00,32.1,29.5,30.19,West,261,1.0,5.0,90,0.00,,---,0.07,VWS V14.01,2013-03-28 19:03:00,
2013-03-28 15:09:00,32.2,29.9,30.19,WNW,296,2.0,7.0,91,0.00,,---,0.07,VWS V14.01,2013-03-28 19:09:00,
2013-03-28 15:15:00,32.1,29.8,30.19,WNW,286,5.0,11.0,91,0.00,,---,0.07,VWS V14.01,2013-03-28 19:15:00,
2013-03-28 15:21:00,32.0,29.7,30.19,West,264,6.0,11.0,91,0.00,,---,0.07,VWS V14.01,2013-03-28 19:21:00,
2013-03-28 15:27:00,31.9,29.6,30.20,West,278,9.0,13.0,91,0.00,,---,0.07,VWS V14.01,2013-03-28 19:27:00,
2013-03-28 15:33:00,31.9,29.6,30.19,WNW,286,3.0,10.0,91,0.00,,---,0.07,VWS V14.01,2013-03-28 19:33:00,
2013-03-28 15:40:00,32.0,29.7,30.19,WSW,257,3.0,10.0,91,0.00,,---,0.07,VWS V14.01,2013-03-28 19:40:00,
2013-03-28 15:46:00,32.1,29.8,30.19,WSW,254,4.0,10.0,91,0.00,,---,0.07,VWS V14.01,2013-03-28 19:46:00,
2013-03-28 15:54:00,32.3,30.0,30.19,West,269,3.0,10.0,91,0.00,,---,0.07,VWS V14.01,2013-03-28 19:54:00,
2013-03-28 16:00:00,32.3,30.0,30.19,West,263,4.0,10.0,91,0.00,,---,0.07,VWS V14.01,2013-03-28 20:00:00,
2013-03-28 16:06:00,32.4,30.1,30.19,West,273,0.0,5.0,91,0.00,,---,0.07,VWS V14.01,2013-03-28 20:06:00,
2013-03-28 16:12:00,32.6,30.3,30.19,West,273,1.0,5.0,91,0.00,,---,0.07,VWS V14.01,2013-03-28 20:12:00,
2013-03-28 16:18:00,32.7,30.4,30.19,WNW,288,5.0,7.0,91,0.00,,---,0.07,VWS V14.01,2013-03-28 20:18:00,
2013-03-28 16:24:00,32.8,30.5,30.19,NW,304,2.0,7.0,91,0.00,,---,0.07,VWS V14.01,2013-03-28 20:24:00,
2013-03-28 16:30:00,32.8,30.2,30.19,West,280,3.0,7.0,90,0.00,,---,0.07,VWS V14.01,2013-03-28 20:30:00,
2013-03-28 16:36:00,32.8,29.9,30.19,WNW,296,0.0,7.0,89,0.00,,---,0.07,VWS V14.01,2013-03-28 20:36:00,
2013-03-28 16:42:00,32.9,30.0,30.20,WNW,296,4.0,10.0,89,0.00,,---,0.07,VWS V14.01,2013-03-28 20:42:00,
2013-03-28 16:48:00,32.9,29.7,30.20,WNW,300,6.0,11.0,88,0.00,,---,0.07,VWS V14.01,2013-03-28 20:48:00,
2013-03-28 16:55:00,32.9,29.7,30.20,WNW,286,3.0,11.0,88,0.00,,---,0.07,VWS V14.01,2013-03-28 20:55:00,
2013-03-28 17:02:00,32.8,29.6,30.20,NW,315,4.0,12.0,88,0.00,,---,0.07,VWS V14.01,2013-03-28 21:02:00,
2013-03-28 17:07:00,32.7,29.5,30.20,WNW,284,7.0,7.0,88,0.00,,---,0.07,VWS V14.01,2013-03-28 21:07:00,
2013-03-28 17:13:00,32.6,29.5,30.20,WSW,238,5.0,9.0,88,0.00,,---,0.07,VWS V14.01,2013-03-28 21:13:00,
2013-03-28 17:19:00,32.5,29.6,30.21,WNW,287,3.0,10.0,89,0.00,,---,0.07,VWS V14.01,2013-03-28 21:19:00,
2013-03-28 17:25:00,32.4,29.5,30.21,NNW,327,1.0,10.0,89,0.00,,---,0.07,VWS V14.01,2013-03-28 21:25:00,
2013-03-28 17:31:00,32.4,29.5,30.20,West,271,2.0,10.0,89,0.00,,---,0.07,VWS V14.01,2013-03-28 21:31:00,
2013-03-28 17:37:00,32.3,29.7,30.21,NW,312,2.0,5.0,90,0.00,,---,0.07,VWS V14.01,2013-03-28 21:37:00,
2013-03-28 17:43:00,32.3,29.7,30.21,West,277,1.0,7.0,90,0.00,,---,0.07,VWS V14.01,2013-03-28 21:43:00,
2013-03-28 17:49:00,32.4,29.8,30.21,West,269,1.0,7.0,90,0.00,,---,0.07,VWS V14.01,2013-03-28 21:49:00,
2013-03-28 17:55:00,32.4,29.8,30.21,WSW,240,5.0,7.0,90,0.00,,---,0.07,VWS V14.01,2013-03-28 21:55:00,
2013-03-28 18:01:00,32.4,29.8,30.21,WSW,255,1.0,7.0,90,0.00,,---,0.07,VWS V14.01,2013-03-28 22:01:00,
2013-03-28 18:08:00,32.4,29.8,30.21,West,271,2.0,5.0,90,0.00,,---,0.07,VWS V14.01,2013-03-28 22:08:00,
2013-03-28 18:14:00,32.4,29.8,30.21,WNW,290,0.0,5.0,90,0.00,,---,0.07,VWS V14.01,2013-03-28 22:14:00,
2013-03-28 18:20:00,32.3,29.7,30.21,West,264,4.0,5.0,90,0.00,,---,0.07,VWS V14.01,2013-03-28 22:20:00,
2013-03-28 18:28:00,32.3,29.7,30.22,West,281,2.0,9.0,90,0.00,,---,0.07,VWS V14.01,2013-03-28 22:28:00,
2013-03-28 18:34:00,32.3,30.0,30.22,WNW,283,4.0,4.0,91,0.00,,---,0.07,VWS V14.01,2013-03-28 22:34:00,
2013-03-28 18:40:00,32.4,29.8,30.22,WSW,257,2.0,6.0,90,0.00,,---,0.07,VWS V14.01,2013-03-28 22:40:00,
2013-03-28 18:46:00,32.3,29.7,30.22,WNW,282,2.0,6.0,90,0.00,,---,0.07,VWS V14.01,2013-03-28 22:46:00,
2013-03-28 18:52:00,32.3,29.7,30.22,West,264,2.0,6.0,90,0.00,,---,0.07,VWS V14.01,2013-03-28 22:52:00,
2013-03-28 18:58:00,32.3,30.0,30.23,West,267,3.0,6.0,91,0.00,,---,0.07,VWS V14.01,2013-03-28 22:58:00,
2013-03-28 19:04:00,32.2,29.9,30.23,West,273,2.0,2.0,91,0.00,,---,0.07,VWS V14.01,2013-03-28 23:04:00,
2013-03-28 19:10:00,32.2,29.9,30.23,West,269,1.0,4.0,91,0.00,,---,0.07,VWS V14.01,2013-03-28 23:10:00,
2013-03-28 19:16:00,32.1,29.8,30.23,West,275,4.0,5.0,91,0.00,,---,0.07,VWS V14.01,2013-03-28 23:16:00,
2013-03-28 19:23:00,32.0,29.9,30.23,West,274,2.0,5.0,92,0.00,,---,0.07,VWS V14.01,2013-03-28 23:23:00,
2013-03-28 19:29:00,32.0,29.9,30.24,WNW,288,4.0,5.0,92,0.00,,---,0.07,VWS V14.01,2013-03-28 23:29:00,
2013-03-28 19:35:00,32.0,29.9,30.23,WNW,290,4.0,5.0,92,0.00,,---,0.07,VWS V14.01,2013-03-28 23:35:00,
2013-03-28 19:41:00,31.9,29.8,30.24,West,269,3.0,5.0,92,0.00,,---,0.07,VWS V14.01,2013-03-28 23:41:00,
2013-03-28 19:47:00,31.9,29.8,30.24,WNW,287,4.0,7.0,92,0.01,,---,0.08,VWS V14.01,2013-03-28 23:47:00,
2013-03-28 19:53:00,31.9,29.8,30.24,West,275,5.0,7.0,92,0.01,,---,0.08,VWS V14.01,2013-03-28 23:53:00,
2013-03-28 19:59:00,31.8,29.8,30.24,West,267,2.0,7.0,92,0.01,,---,0.08,VWS V14.01,2013-03-28 23:59:00,
2013-03-28 20:05:00,31.8,29.8,30.24,West,268,2.0,3.0,92,0.01,,---,0.08,VWS V14.01,2013-03-29 00:05:00,
2013-03-28 20:11:00,31.7,29.6,30.24,West,268,1.0,3.0,92,0.01,,---,0.08,VWS V14.01,2013-03-29 00:11:00,
2013-03-28 20:17:00,31.7,29.9,30.24,West,268,1.0,3.0,93,0.01,,---,0.08,VWS V14.01,2013-03-29 00:17:00,
2013-03-28 20:23:00,31.7,29.9,30.24,West,268,1.0,3.0,93,0.01,,---,0.08,VWS V14.01,2013-03-29 00:23:00,
2013-03-28 20:29:00,31.7,29.9,30.24,West,268,2.0,3.0,93,0.01,,---,0.08,VWS V14.01,2013-03-29 00:29:00,
2013-03-28 20:36:00,31.7,29.9,30.24,West,269,1.0,4.0,93,0.01,,---,0.08,VWS V14.01,2013-03-29 00:36:00,
2013-03-28 20:42:00,31.7,29.9,30.24,West,272,2.0,4.0,93,0.01,,---,0.08,VWS V14.01,2013-03-29 00:42:00,
2013-03-28 20:48:00,31.7,29.9,30.24,West,272,1.0,4.0,93,0.01,,---,0.08,VWS V14.01,2013-03-29 00:48:00,
2013-03-28 20:54:00,31.7,29.9,30.24,West,272,1.0,4.0,93,0.01,,---,0.08,VWS V14.01,2013-03-29 00:54:00,
2013-03-28 21:00:00,31.6,29.8,30.25,West,272,0.0,4.0,93,0.01,,---,0.08,VWS V14.01,2013-03-29 01:00:00,
2013-03-28 21:06:00,31.6,29.8,30.25,West,272,2.0,3.0,93,0.00,,---,0.08,VWS V14.01,2013-03-29 01:06:00,
2013-03-28 21:12:00,31.6,29.8,30.25,West,272,1.0,3.0,93,0.00,,---,0.08,VWS V14.01,2013-03-29 01:12:00,
2013-03-28 21:18:00,31.6,29.8,30.24,West,272,2.0,3.0,93,0.00,,---,0.08,VWS V14.01,2013-03-29 01:18:00,
2013-03-28 21:24:00,31.6,29.8,30.25,West,272,1.0,3.0,93,0.00,,---,0.08,VWS V14.01,2013-03-29 01:24:00,
2013-03-28 21:30:00,31.5,29.7,30.25,West,272,0.0,3.0,93,0.00,,---,0.08,VWS V14.01,2013-03-29 01:30:00,
2013-03-28 21:39:00,31.5,29.7,30.25,West,271,2.0,3.0,93,0.00,,---,0.08,VWS V14.01,2013-03-29 01:39:00,
2013-03-28 21:45:00,31.5,29.7,30.25,West,272,0.0,3.0,93,0.00,,---,0.08,VWS V14.01,2013-03-29 01:45:00,
2013-03-28 21:51:00,31.5,29.7,30.25,West,271,1.0,3.0,93,0.00,,---,0.08,VWS V14.01,2013-03-29 01:51:00,
2013-03-28 21:57:00,31.5,29.7,30.25,West,271,0.0,3.0,93,0.00,,---,0.08,VWS V14.01,2013-03-29 01:57:00,
2013-03-28 22:03:00,31.4,29.6,30.25,West,271,0.0,1.0,93,0.00,,---,0.08,VWS V14.01,2013-03-29 02:03:00,
2013-03-28 22:09:00,31.4,29.6,30.25,West,272,1.0,3.0,93,0.00,,---,0.08,VWS V14.01,2013-03-29 02:09:00,
2013-03-28 22:15:00,31.4,29.6,30.25,West,272,2.0,3.0,93,0.00,,---,0.08,VWS V14.01,2013-03-29 02:15:00,
2013-03-28 22:21:00,31.4,29.6,30.25,West,273,2.0,3.0,93,0.00,,---,0.08,VWS V14.01,2013-03-29 02:21:00,
2013-03-28 22:27:00,31.5,29.7,30.25,West,273,2.0,3.0,93,0.00,,---,0.08,VWS V14.01,2013-03-29 02:27:00,
2013-03-28 22:33:00,31.5,29.7,30.25,West,273,0.0,3.0,93,0.00,,---,0.08,VWS V14.01,2013-03-29 02:33:00,
2013-03-28 22:39:00,31.5,29.7,30.25,West,265,2.0,4.0,93,0.00,,---,0.08,VWS V14.01,2013-03-29 02:39:00,
2013-03-28 22:45:00,31.5,29.7,30.25,West,272,2.0,4.0,93,0.00,,---,0.08,VWS V14.01,2013-03-29 02:45:00,
2013-03-28 22:51:00,31.5,29.7,30.25,West,266,3.0,4.0,93,0.00,,---,0.08,VWS V14.01,2013-03-29 02:51:00,
2013-03-28 22:57:00,31.4,29.6,30.24,West,265,0.0,4.0,93,0.00,,---,0.08,VWS V14.01,2013-03-29 02:57:00,
2013-03-28 23:03:00,31.4,29.6,30.25,West,265,1.0,2.0,93,0.00,,---,0.08,VWS V14.01,2013-03-29 03:03:00,
2013-03-28 23:09:00,31.4,29.6,30.25,West,266,0.0,2.0,93,0.00,,---,0.08,VWS V14.01,2013-03-29 03:09:00,
2013-03-28 23:16:00,31.4,29.6,30.24,West,265,0.0,2.0,93,0.00,,---,0.08,VWS V14.01,2013-03-29 03:16:00,
2013-03-28 23:22:00,31.4,29.6,30.25,West,266,2.0,3.0,93,0.00,,---,0.08,VWS V14.01,2013-03-29 03:22:00,
2013-03-28 23:28:00,31.4,29.4,30.25,West,261,2.0,4.0,92,0.00,,---,0.08,VWS V14.01,2013-03-29 03:28:00,
2013-03-28 23:34:00,31.4,29.4,30.24,West,261,2.0,3.0,92,0.00,,---,0.08,VWS V14.01,2013-03-29 03:34:00,
2013-03-28 23:40:00,31.4,29.4,30.24,West,261,2.0,3.0,92,0.00,,---,0.08,VWS V14.01,2013-03-29 03:40:00,
2013-03-28 23:48:00,31.4,29.4,30.24,West,261,0.0,3.0,92,0.00,,---,0.08,VWS V14.01,2013-03-29 03:48:00,
2013-03-28 23:54:00,31.4,29.4,30.24,West,261,0.0,3.0,92,0.00,,---,0.08,VWS V14.01,2013-03-29 03:54:00,